Miami, FL

12:43 AM EST on December 12, 2017 (GMT -0500)
Miami International

Weather History for KMIA - April, 2014

Change the Weather History Date:

Monday, April 21, 2014

  Actual Average Record
Temperature  
Mean Temperature 73 °F 76 °F  
Max Temperature 82 °F 84 °F 90 °F (1988)
Min Temperature 64 °F 69 °F 49 °F (1940)
Degree Days  
Heating Degree Days 0 0  
Month to date heating degree days 0 0  
Since 1 July heating degree days 61 127  
Cooling Degree Days 8 11  
Month to date cooling degree days 246 214  
Year to date cooling degree days 944 783  
Growing Degree Days 23 (Base 50)    
Moisture  
Dew Point 61 °F    
Average Humidity 65    
Maximum Humidity 81    
Minimum Humidity 49    
Precipitation  
Precipitation 0.00 in 0.12 in 1.52 in (1976)
Month to date precipitation 1.18 2.22  
Year to date precipitation 6.86 9.09  
Snow  
Snow 0.00 in - - ()
Month to date snowfall 0.0  
Since 1 July snowfall 0.0  
Snow Depth 0.00 in    
Sea Level Pressure  
Sea Level Pressure 29.99 in    
Wind  
Wind Speed 7 mph (North)    
Max Wind Speed 14 mph    
Max Gust Speed 20 mph    
Visibility 10 miles    
Events      
T = Trace of Precipitation, MM = Missing Value Source: NWS Daily Summary

Daily Weather History Graph

Daily Weather History Graph

Search for Another Location

Airport or City:

Trip Planner

Search our weather history database for the weather conditions in past years. The results will help you decide how hot, cold, wet, or windy it might be!

Date:

Astronomy

Apr. 21, 2014 Rise Set
Actual Time 6:52 AM EDT 7:47 PM EDT
Civil Twilight 6:28 AM EDT 8:11 PM EDT
Nautical Twilight 6:00 AM EDT 8:39 PM EDT
Astronomical Twilight 5:32 AM EDT 9:07 PM EDT
Moon 1:07 AM EDT (4/21) 12:24 PM EDT (4/21)
Length of Visible Light 13h 42m
Length of Day
12h 54m
Waning Gibbous, 58% of the Moon is Illuminated
Apr 21
Waning Gibbous
Apr 22
Last Quarter
Apr 29
New
May 6
First Quarter
May 14
Full

Hourly Weather History & Observations

Time (EDT) Temp. Heat Index Dew Point Humidity Pressure Visibility Wind Dir Wind Speed Gust Speed Precip Events Conditions
12:53 AM 69.1 °F - 60.1 °F 73% 30.05 in 10.0 mi NNE 5.8 mph - N/A   Partly Cloudy
1:53 AM 68.0 °F - 60.1 °F 76% 30.03 in 10.0 mi North 6.9 mph - N/A   Scattered Clouds
2:53 AM 66.9 °F - 60.1 °F 79% 30.01 in 10.0 mi North 6.9 mph - N/A   Scattered Clouds
3:53 AM 66.9 °F - 59.0 °F 76% 30.00 in 10.0 mi North 5.8 mph - N/A   Clear
4:53 AM 66.0 °F - 60.1 °F 81% 30.00 in 10.0 mi Variable 5.8 mph - N/A   Clear
5:53 AM 64.9 °F - 57.9 °F 78% 30.01 in 10.0 mi NNW 6.9 mph - N/A   Clear
6:53 AM 64.0 °F - 57.0 °F 78% 30.02 in 10.0 mi NNW 3.5 mph - N/A   Scattered Clouds
7:53 AM 64.9 °F - 57.9 °F 78% 30.03 in 10.0 mi NNW 8.1 mph - N/A   Partly Cloudy
8:53 AM 68.0 °F - 59.0 °F 73% 30.03 in 10.0 mi NNW 6.9 mph - N/A   Partly Cloudy
9:53 AM 71.1 °F - 61.0 °F 70% 30.04 in 10.0 mi NNW 5.8 mph - N/A   Partly Cloudy
10:53 AM 73.0 °F - 61.0 °F 66% 30.04 in 10.0 mi NW 9.2 mph 16.1 mph N/A   Partly Cloudy
11:53 AM 75.9 °F - 60.1 °F 58% 30.03 in 10.0 mi NNW 10.4 mph - N/A   Mostly Cloudy
12:53 PM 78.1 °F - 60.1 °F 54% 30.01 in 10.0 mi NNW 8.1 mph 16.1 mph N/A   Mostly Cloudy
1:53 PM 79.0 °F - 60.1 °F 52% 29.99 in 10.0 mi NNW 11.5 mph 16.1 mph N/A   Mostly Cloudy
2:53 PM 80.1 °F 80.9 °F 60.1 °F 50% 29.97 in 10.0 mi NNW 10.4 mph - N/A   Scattered Clouds
3:53 PM 81.0 °F 81.6 °F 60.1 °F 49% 29.95 in 10.0 mi WNW 10.4 mph - N/A   Scattered Clouds
4:53 PM 80.1 °F 80.7 °F 59.0 °F 48% 29.94 in 10.0 mi NW 5.8 mph - N/A   Mostly Cloudy
5:53 PM 80.1 °F 80.7 °F 59.0 °F 48% 29.93 in 10.0 mi Variable 6.9 mph - N/A   Mostly Cloudy
6:53 PM 78.1 °F - 64.9 °F 64% 29.94 in 10.0 mi NE 5.8 mph - N/A   Mostly Cloudy
7:53 PM 75.0 °F - 64.9 °F 71% 29.94 in 10.0 mi NE 8.1 mph - N/A   Scattered Clouds
8:53 PM 73.9 °F - 64.9 °F 73% 29.96 in 10.0 mi NE 6.9 mph - N/A   Mostly Cloudy
9:53 PM 73.9 °F - 64.9 °F 73% 29.97 in 10.0 mi NE 8.1 mph - N/A   Mostly Cloudy
10:53 PM 73.9 °F - 64.0 °F 71% 29.98 in 10.0 mi NE 5.8 mph - N/A   Overcast
11:29 PM 73.4 °F - 64.4 °F 73% 29.98 in 10.0 mi NNE 6.9 mph - N/A   Overcast
11:53 PM 73.0 °F - 63.0 °F 71% 29.99 in 10.0 mi NNE 8.1 mph - N/A   Mostly Cloudy